Theta_e
288 288 286 285 284 283 283 282 282 282 281 280 280 280 279 279 279 279 279 279 279 279 279 279 278 278 277 278 277 277 277 277 277 277 277 277 276 277 276 276 276 276 276 276 276 275 275 275 275 274 274 274 274 274 274 274 274 274 274 274 274 274 274 273 272 271 273 273 274 273 273 274 272 273 272 273 273 273 276 274 274 273 273 273 273
288 287 286 285 284 283 282 282 281 280 280 279 279 279 279 279 279 279 279 279 279 279 279 278 277 277 277 277 277 277 277 277 276 277 277 276 276 277 276 276 276 276 277 276 275 275 275 274 273 273 274 274 274 274 273 273 273 273 273 273 273 273 274 273 272 271 270 272 272 272 272 273 271 274 272 272 272 273 273 273 273 273 273 273 273
288 287 286 285 284 283 282 281 280 279 279 279 279 278 278 278 278 279 279 279 279 279 278 278 277 277 277 278 277 277 277 277 276 276 277 277 277 277 277 277 276 276 276 276 275 274 273 273 273 273 273 272 273 273 273 273 273 273 273 273 272 272 273 273 271 269 269 269 271 270 271 272 272 272 272 273 273 273 272 272 273 274 274 274 273
287 286 285 285 284 282 282 281 279 279 279 279 279 278 278 278 278 279 279 278 278 278 277 278 277 278 278 277 277 276 276 276 276 277 277 278 278 278 277 276 276 277 277 276 275 274 274 273 273 273 273 272 272 271 271 271 272 272 272 272 272 272 272 272 272 271 268 269 269 271 271 272 271 272 273 273 272 272 272 273 273 273 273 274 273
287 286 285 284 283 282 281 280 280 279 279 278 278 278 278 278 278 278 278 277 277 277 277 278 278 278 278 277 277 277 277 277 277 277 278 278 278 278 277 277 276 276 276 276 277 275 274 274 273 272 272 272 271 271 271 270 271 271 271 271 271 271 271 272 271 272 270 269 269 271 272 271 272 272 272 271 271 272 272 272 272 272 273 273 274
286 286 285 284 283 282 281 280 280 279 278 278 278 278 278 278 278 278 278 278 277 277 277 277 278 278 278 278 278 278 278 278 278 277 277 277 277 277 277 277 276 276 275 276 276 275 274 273 273 272 272 272 272 271 270 271 270 270 270 270 270 270 271 271 271 271 270 269 269 269 270 271 270 271 272 271 271 270 271 272 272 272 272 273 274
285 286 285 284 283 282 282 281 280 279 279 279 279 278 278 278 278 278 278 278 277 277 278 278 278 278 278 278 278 278 278 278 278 277 277 277 277 277 276 276 275 275 275 275 275 274 274 273 272 272 272 273 272 271 271 270 271 270 271 270 270 270 270 270 270 270 269 269 269 270 270 270 271 269 271 272 271 271 270 270 271 273 273 273 273
284 285 285 284 284 283 282 282 281 280 279 279 279 279 279 279 279 279 278 278 278 278 278 278 278 278 278 278 279 279 278 278 278 277 277 277 276 276 276 276 275 275 274 274 275 274 274 274 273 273 273 273 272 272 271 271 271 270 270 270 270 269 269 269 268 269 269 269 269 269 269 269 269 270 271 270 269 269 271 270 269 270 272 274 274
284 284 284 285 284 284 282 282 281 280 280 279 279 279 279 279 279 278 278 278 279 278 278 279 278 278 278 278 278 278 278 278 278 277 277 276 276 276 276 276 275 275 274 274 274 274 274 273 273 273 273 275 277 276 275 275 271 270 270 270 269 269 268 267 268 267 268 268 268 270 269 269 269 269 268 268 268 268 270 270 270 272 273 273 274
284 284 284 284 285 284 283 282 281 280 279 279 279 279 279 279 279 279 279 279 279 278 278 278 278 278 278 278 278 278 278 278 280 281 280 277 276 276 276 275 275 275 275 274 274 274 273 273 274 276 277 278 278 279 279 279 278 274 271 270 269 269 266 265 266 267 267 267 268 269 268 268 268 269 268 269 270 270 270 270 270 272 273 273 273
284 284 284 284 284 283 283 282 281 280 280 280 279 279 279 279 279 279 279 279 278 278 278 278 278 278 278 278 278 278 278 278 281 283 283 282 277 276 276 276 275 275 275 274 274 274 273 274 273 276 277 278 278 280 281 281 281 280 279 277 275 270 267 266 266 267 266 266 268 267 268 268 269 269 269 269 269 270 270 272 272 273 272 271 269
284 284 283 283 283 283 283 282 281 281 280 280 280 279 279 279 279 279 279 278 278 278 278 278 278 278 278 278 278 278 278 281 283 284 284 284 281 277 276 276 276 275 274 274 274 274 274 274 274 274 274 275 275 276 279 281 282 282 281 281 279 279 277 271 269 266 266 266 266 267 268 268 269 269 268 269 269 270 272 273 273 273 271 270 270
283 283 282 282 282 282 282 282 282 281 281 281 280 280 279 279 279 279 278 279 278 278 278 278 278 278 278 278 277 278 277 281 283 284 285 285 284 280 276 276 276 275 274 274 274 274 274 274 273 273 273 276 276 275 274 275 280 282 282 283 282 282 281 281 280 273 270 268 268 268 269 269 269 269 271 270 273 271 272 273 274 272 272 270 270
283 282 281 281 281 281 282 282 282 281 281 281 280 279 279 279 279 279 279 279 278 278 278 278 278 278 278 278 277 277 277 281 283 284 285 285 286 283 276 276 276 275 274 274 274 274 274 274 273 273 273 273 274 274 274 273 272 273 275 276 276 278 282 283 282 282 277 272 270 270 271 271 270 271 272 274 272 272 273 272 273 271 270 270 271
282 282 281 281 280 281 282 282 282 281 281 280 280 279 279 279 279 279 279 279 278 278 278 278 278 278 278 278 277 277 277 282 283 285 285 286 286 286 278 276 275 275 274 274 274 274 274 274 273 273 273 272 273 274 273 272 271 270 270 270 272 272 272 273 275 276 277 275 273 273 272 272 272 272 273 273 274 274 275 272 272 271 269 267 265
281 281 281 280 280 281 282 282 282 281 280 280 279 279 279 279 279 279 279 279 278 278 278 278 278 278 278 277 277 277 277 282 283 284 285 286 286 284 279 276 275 274 274 274 274 274 274 273 273 273 273 272 274 278 277 273 270 268 267 268 268 269 269 273 275 276 274 273 273 273 272 272 275 273 274 274 275 275 271 267 265 262 262 262 263
281 281 280 280 281 281 282 282 281 281 280 280 279 279 279 279 279 279 278 279 278 278 278 278 278 278 278 277 277 277 277 281 283 284 285 286 286 283 280 277 275 274 274 274 274 274 273 273 273 273 272 272 275 278 280 279 270 268 267 267 267 266 267 269 274 278 279 279 279 279 279 279 279 280 280 281 279 273 266 265 265 260 259 261 263
280 280 280 280 281 281 281 281 281 280 280 279 279 279 279 278 277 277 278 278 278 278 278 278 278 278 278 277 277 277 278 279 283 284 284 285 285 282 280 277 276 275 275 274 273 273 273 275 274 273 272 272 276 278 279 279 273 270 268 267 266 266 267 269 269 271 277 279 279 280 280 280 280 281 281 280 279 275 266 267 263 259 260 259 260
280 280 280 280 280 280 280 280 280 280 279 279 278 278 278 278 278 278 279 279 278 278 278 278 277 277 277 278 279 278 277 278 281 283 284 285 284 282 280 277 277 276 275 275 274 273 272 274 276 275 274 274 277 278 279 278 275 273 271 268 268 268 270 269 268 268 269 271 273 275 276 278 277 276 274 277 276 274 271 268 263 261 262 261 260
279 280 279 280 280 280 281 281 280 280 280 279 279 279 279 279 278 278 278 278 278 278 277 277 277 277 276 276 276 277 276 275 277 282 283 284 285 283 280 278 277 277 277 276 275 274 273 272 274 278 280 280 280 280 280 280 277 274 273 270 270 270 270 268 269 269 269 270 270 272 272 274 272 271 270 270 269 269 269 268 266 264 262 261 259
280 280 279 279 280 280 280 281 281 280 280 279 280 279 279 279 279 278 278 277 277 276 276 276 276 276 275 274 274 274 274 274 275 280 281 283 284 284 281 279 279 278 277 276 275 274 273 272 271 275 278 280 281 282 282 282 281 278 275 272 272 274 272 268 270 274 270 269 270 270 271 270 270 269 269 269 268 267 268 270 267 267 264 261 259
280 280 280 280 280 280 280 281 281 281 281 280 279 279 279 279 279 278 278 277 276 276 276 275 275 275 274 273 273 273 274 276 273 277 280 281 283 284 282 280 279 277 276 275 274 273 273 272 271 274 277 279 280 281 282 282 283 280 279 281 281 280 277 275 272 271 272 271 271 270 270 268 267 267 266 267 266 266 266 266 268 267 267 266 263
281 281 280 280 280 280 281 281 281 281 280 280 280 279 278 278 278 277 277 276 276 275 275 274 273 273 273 273 272 272 271 271 276 273 277 279 281 282 283 282 283 278 275 275 276 276 274 272 272 276 278 279 280 280 281 282 281 280 283 283 283 283 281 278 275 273 272 272 271 270 269 267 266 266 266 266 267 266 265 266 265 266 266 266 267
281 281 281 280 280 280 280 280 280 280 280 280 279 278 277 277 276 276 276 275 275 274 274 273 273 272 273 273 272 271 270 269 273 276 275 277 278 280 281 282 283 279 276 276 277 276 275 273 272 277 278 279 280 281 281 281 280 281 282 282 282 282 280 278 276 274 271 270 269 268 268 267 267 267 266 266 266 265 265 265 265 265 265 265 266
281 281 280 280 280 280 279 279 279 279 279 279 278 277 276 276 275 274 275 275 274 274 273 273 272 272 272 272 272 270 269 268 267 271 276 276 278 279 280 280 281 281 279 278 277 275 278 280 280 280 280 280 281 281 281 281 282 281 282 281 280 279 278 277 274 271 269 268 268 268 268 267 267 268 268 266 265 265 264 265 265 264 264 264 263
281 280 280 279 279 278 278 278 278 278 278 279 278 278 277 276 276 274 274 274 274 274 273 272 272 271 271 270 270 268 265 265 266 265 270 274 276 278 279 279 279 280 280 278 280 281 281 282 282 282 281 281 280 278 277 277 279 280 280 280 278 277 277 275 272 270 269 269 269 268 268 267 266 267 266 265 264 263 263 261 261 261 261 260 260
279 279 278 278 277 278 278 277 277 276 277 277 277 277 276 276 275 274 273 273 272 272 271 271 270 269 269 268 266 265 263 262 263 263 263 265 267 269 271 271 275 276 275 274 275 274 275 275 275 277 278 279 280 280 280 279 277 277 277 276 276 276 275 274 273 271 270 270 269 269 267 266 265 264 263 263 262 263 264 261 260 260 260 260 259
278 277 276 276 275 276 276 272 274 275 274 275 275 274 273 274 274 274 273 272 272 270 269 269 269 270 269 268 266 264 265 264 263 264 264 263 263 263 263 263 263 263 265 267 267 269 270 272 272 270 271 273 274 275 276 276 276 275 274 274 274 274 274 275 274 271 270 269 268 265 263 262 262 262 262 262 261 261 262 260 259 259 259 259 258
274 274 273 274 273 272 273 273 273 273 271 267 266 267 270 270 271 267 266 268 271 271 270 269 269 267 268 267 266 266 265 265 267 271 267 270 266 262 261 263 263 263 267 272 270 268 267 267 267 268 269 271 272 273 274 274 274 274 273 272 272 271 270 269 269 269 268 266 265 265 264 262 262 262 261 260 260 260 262 260 260 259 259 259 258
271 269 269 270 269 270 269 268 268 269 269 268 269 270 272 275 271 268 266 273 276 277 276 268 266 265 265 265 266 267 265 265 274 276 276 276 276 276 273 273 273 270 272 276 275 270 269 268 268 268 269 269 270 271 271 272 272 271 271 271 270 268 267 267 268 268 267 266 266 264 264 263 262 261 260 260 260 260 260 261 259 259 258 258 258
270 269 269 268 268 268 267 266 265 266 267 268 268 268 267 271 277 277 276 276 277 278 278 278 277 274 268 260 265 275 275 276 277 277 278 278 278 278 278 278 278 278 278 276 274 273 271 270 270 270 270 270 269 269 269 269 270 270 270 269 268 267 268 267 267 267 266 266 265 264 263 262 262 262 260 260 260 259 259 260 259 258 258 258 257
270 267 267 266 267 266 265 265 264 265 263 263 266 266 267 266 268 276 277 277 278 278 278 278 278 277 277 274 268 267 274 277 277 277 278 278 278 278 278 278 278 279 279 279 275 273 272 271 270 270 270 269 269 269 269 269 269 270 270 269 268 267 266 267 268 267 266 265 264 263 262 262 262 261 261 260 260 258 258 258 258 257 257 257 257
267 266 265 265 265 265 265 265 264 264 264 263 263 265 265 265 265 262 268 276 277 277 277 278 278 278 278 278 278 276 276 277 277 277 276 276 277 276 277 277 277 277 277 273 272 272 271 271 270 270 269 269 269 269 269 269 269 269 269 269 269 269 269 268 269 268 266 265 264 263 263 262 261 261 260 260 259 258 258 258 258 258 257 257 257
266 265 265 265 265 264 263 263 262 262 261 262 262 263 261 262 262 264 263 263 267 270 273 275 275 275 276 276 276 275 275 275 275 275 275 275 274 275 274 272 275 275 272 267 268 267 267 266 266 266 265 266 266 266 265 266 266 266 266 266 267 268 268 268 266 266 266 265 265 264 263 262 261 260 259 259 259 258 257 257 257 257 257 257 256
263 263 263 263 263 262 262 262 261 260 260 260 261 260 260 258 260 262 262 263 262 259 257 259 268 273 270 271 273 274 273 273 274 273 273 273 272 272 271 265 264 264 264 264 264 264 263 263 263 263 263 263 264 263 263 263 263 264 264 264 264 265 265 266 265 265 264 264 263 263 262 261 261 260 260 258 256 255 255 255 255 256 256 256 256
262 262 261 261 261 261 260 260 260 260 260 258 258 259 259 260 259 257 257 257 257 256 255 255 258 265 268 268 271 271 272 272 271 271 271 270 269 269 257 256 256 257 258 258 258 259 259 258 258 257 258 258 259 259 260 260 261 261 262 262 262 263 263 263 264 264 264 263 262 262 262 260 260 259 258 257 256 255 254 255 255 256 256 256 256
262 261 261 259 259 259 258 258 259 260 262 260 259 259 258 258 256 255 255 255 254 252 252 253 254 255 260 259 263 267 270 269 269 268 268 267 266 259 254 254 252 253 255 254 255 255 253 253 254 253 254 254 254 254 256 256 258 259 260 260 261 260 260 261 263 263 263 262 261 260 260 260 259 258 257 256 255 253 253 254 255 256 257 257 257
260 261 259 259 259 259 260 260 260 261 259 259 258 257 257 256 255 255 256 254 255 253 252 254 257 251 252 253 260 258 260 265 265 263 261 260 256 253 252 253 253 251 252 251 253 251 251 250 251 251 252 252 252 253 253 254 256 257 258 259 259 259 261 261 261 261 261 260 259 259 259 258 258 257 256 256 255 254 254 255 255 254 256 256 256
260 262 263 263 262 260 259 259 258 258 257 257 256 257 256 256 254 254 253 252 252 252 251 249 250 251 251 252 252 258 259 253 252 250 250 250 250 248 247 248 249 250 251 250 251 252 249 248 250 251 251 250 252 252 252 254 255 256 257 257 257 257 257 256 256 257 257 257 257 257 257 257 256 255 255 254 254 254 254 255 255 254 254 254 254
261 260 263 264 261 261 258 257 257 257 256 256 254 255 255 254 254 253 252 253 251 250 249 251 251 250 251 253 257 257 256 253 250 249 249 249 249 248 246 247 248 249 249 247 248 247 248 247 246 247 249 248 250 251 252 253 254 255 256 256 255 255 255 254 254 255 256 257 257 256 256 256 256 255 254 254 254 254 254 254 254 255 255 254 254
260 260 260 261 260 258 257 256 255 255 254 254 254 254 253 253 252 252 251 252 252 250 250 248 248 247 250 260 265 262 253 251 249 248 249 249 249 248 247 247 248 247 248 248 248 247 246 245 246 247 247 248 249 249 250 251 252 253 254 255 254 254 253 252 252 253 254 255 255 255 255 254 254 253 253 253 256 256 254 255 254 255 255 255 255
258 258 258 257 258 256 256 254 254 255 254 254 253 253 253 253 251 251 251 251 251 250 249 248 248 245 255 265 264 262 252 246 248 248 248 247 247 246 248 247 245 245 245 245 245 246 247 247 247 247 247 248 248 248 249 249 250 251 252 252 253 253 252 252 252 251 252 253 252 253 253 254 254 254 254 257 254 254 254 254 254 254 253 254 253
256 256 255 255 255 255 255 253 252 253 252 252 251 254 253 251 251 251 250 250 249 249 248 248 248 247 250 260 258 258 246 244 250 248 247 247 246 247 246 245 246 244 244 245 245 244 245 246 247 247 247 248 248 248 249 249 249 251 251 251 252 252 251 252 252 252 250 251 252 253 253 253 255 254 253 254 254 254 254 254 254 254 253 253 253
255 254 254 254 253 253 252 252 252 251 251 252 252 251 250 249 248 248 248 248 248 248 247 246 246 248 247 248 250 247 243 245 244 242 244 247 246 246 246 245 244 244 245 245 245 244 244 245 246 248 246 246 247 246 247 248 248 249 250 251 252 253 252 250 251 252 252 251 252 252 252 252 253 253 254 255 254 254 253 253 253 253 253 251 251
253 254 253 253 251 252 250 250 250 251 251 250 248 248 249 247 247 247 247 247 248 247 246 246 247 247 248 245 244 245 245 243 246 247 246 245 245 246 246 244 244 244 245 246 245 243 243 245 246 245 247 246 247 247 247 248 247 248 248 250 250 251 251 250 251 251 253 253 253 252 251 252 252 253 253 254 254 253 253 253 253 253 253 252 251
252 252 253 252 251 250 249 248 250 248 248 248 248 245 245 245 245 247 247 247 247 246 245 246 245 246 246 244 244 246 244 242 243 244 246 245 245 247 245 244 244 244 245 245 245 243 246 246 245 246 248 248 247 247 247 246 248 248 248 247 250 251 251 250 249 250 250 250 252 251 252 252 252 253 254 253 253 253 253 253 251 251 251 251 251
250 251 250 250 250 250 249 248 246 246 245 246 246 246 245 244 244 246 248 247 246 248 246 244 244 244 244 243 244 244 244 245 245 245 245 246 243 245 245 244 245 245 245 246 244 246 246 247 246 246 247 247 246 248 248 248 247 248 248 248 249 250 249 249 250 249 250 249 251 250 251 252 253 253 254 254 253 253 253 252 251 250 250 250 250
249 249 249 249 249 249 247 247 248 250 247 247 247 247 247 246 246 246 245 245 246 246 246 244 243 243 245 245 245 245 245 245 245 246 245 245 244 245 244 243 245 245 244 245 244 245 246 245 246 246 246 247 248 248 248 247 247 247 247 247 248 248 251 252 250 250 249 249 249 250 251 252 252 252 252 252 252 251 251 251 250 250 250 250 250
248 249 249 248 248 248 248 248 248 246 246 245 247 247 247 246 245 245 245 245 245 245 244 244 245 243 243 245 245 245 245 246 245 244 246 245 245 243 245 243 245 246 245 246 246 245 246 245 246 246 247 246 247 247 248 248 248 247 246 247 249 253 254 254 253 250 253 251 250 250 250 251 251 251 251 251 251 250 250 249 248 250 250 250 250
248 248 248 248 248 246 246 245 245 243 245 244 244 244 246 246 245 245 244 244 244 244 243 244 245 245 244 246 246 247 245 246 246 247 246 245 245 245 246 245 245 245 245 245 246 246 245 244 245 246 246 246 247 247 247 247 247 248 246 248 252 254 254 255 255 255 255 251 251 250 250 250 250 250 249 249 248 249 249 249 249 250 250 249 249
248 247 247 247 246 246 244 243 242 241 242 243 242 243 245 244 245 244 245 245 246 246 245 245 245 244 245 246 246 246 247 245 247 246 246 246 246 244 246 246 247 246 245 246 247 247 246 245 246 247 246 247 248 248 247 247 246 247 250 252 254 254 254 255 254 255 255 255 250 250 250 250 248 248 247 246 245 245 248 249 250 249 248 248 249
Wind_Speed
11 10 9 9 9 10 9 8 9 8 9 9 10 9 8 8 8 8 8 8 9 9 9 9 8 8 8 8 9 9 9 8 6 7 7 8 6 7 6 7 9 6 7 6 4 6 6 6 5 4 4 4 5 4 4 4 3 4 4 4 5 3 6 5 7 8 4 2 3 3 2 1 3 1 3 3 5 4 5 5 6 5 6 6 6
11 10 9 9 11 10 10 7 8 7 9 9 9 8 8 8 8 8 10 9 9 9 9 7 7 8 8 8 7 7 7 8 7 7 8 8 7 5 7 7 8 7 7 7 6 5 5 6 5 5 4 5 4 5 5 5 4 4 4 5 5 6 5 6 6 4 7 1 3 3 2 1 1 0 2 5 6 5 6 5 5 5 6 6 6
10 10 10 10 10 9 9 9 9 8 9 9 9 9 8 7 6 9 9 8 6 7 8 8 8 7 7 7 6 6 7 7 6 7 8 9 9 7 7 8 9 9 8 8 7 6 5 5 6 5 4 4 5 5 4 5 4 5 5 4 5 5 5 5 4 6 6 6 4 3 2 1 2 3 3 4 5 5 7 6 5 5 5 6 6
10 10 9 9 9 9 10 9 10 9 10 9 10 8 8 6 6 7 7 7 8 5 5 6 7 8 8 7 6 6 6 6 6 6 8 8 9 9 8 7 7 7 8 8 8 7 7 6 6 6 5 6 5 5 4 4 5 5 5 5 5 6 5 5 5 5 4 5 3 4 2 1 3 2 4 4 5 5 5 6 5 5 6 5 6
10 11 11 11 10 10 10 10 11 11 10 9 10 8 8 7 6 7 7 7 6 6 5 4 6 7 8 8 7 7 7 7 7 6 5 5 6 7 7 7 6 6 7 8 7 8 7 8 7 7 6 7 5 5 5 5 5 5 6 5 6 5 4 5 5 4 5 7 5 1 2 2 3 3 3 5 5 5 4 6 5 6 5 5 5
10 11 11 11 11 12 12 11 12 12 11 10 11 10 9 8 8 6 7 8 7 6 7 6 6 7 6 7 7 7 6 6 6 6 5 5 5 5 6 6 6 6 6 6 7 7 8 7 7 8 8 9 8 6 6 6 5 6 6 6 5 4 5 4 4 5 5 6 4 5 1 3 3 3 3 3 6 8 7 4 4 4 3 4 3
11 11 11 12 12 13 13 13 12 12 11 11 10 10 10 9 9 9 8 8 8 8 7 7 6 6 6 6 6 6 6 6 6 6 5 5 5 6 6 6 5 5 5 6 6 6 6 6 7 8 9 9 8 8 8 6 7 7 7 7 5 5 6 5 4 5 5 5 4 4 6 4 4 5 2 2 4 4 7 9 8 2 3 4 7
11 11 11 12 13 13 12 11 11 11 10 10 11 11 10 10 10 8 8 9 9 9 9 9 7 5 6 6 5 5 6 5 5 5 5 6 6 6 6 6 6 5 5 5 5 6 6 6 7 8 9 8 8 7 7 8 6 6 6 5 5 6 6 5 4 5 4 5 6 6 5 5 4 4 3 2 3 3 3 3 9 11 9 4 3
11 12 12 13 13 11 10 10 9 10 10 10 10 10 10 9 9 8 8 8 7 8 7 8 8 7 6 6 5 5 6 6 6 7 7 6 6 6 6 6 6 6 5 5 5 5 6 6 7 7 8 8 11 9 9 8 7 7 6 6 6 6 5 4 5 4 4 4 7 5 6 7 6 5 5 3 3 6 3 3 6 7 7 9 4
12 11 12 12 9 9 10 9 10 9 9 10 9 9 9 9 9 9 9 8 8 7 7 7 7 8 8 7 6 6 6 5 6 10 8 7 7 6 5 6 6 6 6 5 5 6 7 6 6 9 10 11 11 13 13 13 12 9 7 7 7 7 6 5 6 6 5 6 8 6 6 9 6 5 5 3 3 3 5 5 7 7 7 8 7
11 11 11 8 8 8 9 9 9 9 9 8 7 9 9 9 9 9 9 8 8 8 8 8 8 7 7 7 7 6 6 5 9 11 12 11 6 6 7 7 6 6 6 7 8 8 7 7 6 8 8 9 10 15 15 15 15 16 14 13 11 10 8 7 7 6 7 8 6 4 7 9 8 4 4 5 3 4 5 6 6 7 8 8 11
11 11 9 8 8 10 9 9 10 9 9 8 8 8 8 8 9 8 8 8 7 7 8 9 7 7 6 6 7 6 6 6 11 12 13 13 11 8 6 6 6 7 7 7 7 7 8 7 7 6 7 8 7 8 11 15 16 17 17 16 16 17 14 10 8 6 6 7 8 9 6 9 7 3 4 3 5 5 5 6 7 6 6 6 8
10 10 8 8 8 8 9 10 10 9 9 9 8 9 9 9 9 9 9 8 7 8 9 9 9 7 8 8 7 6 6 8 12 13 14 15 15 11 5 7 6 7 8 8 8 8 7 7 7 7 7 10 8 7 7 7 12 16 17 18 18 18 17 18 15 11 7 8 9 9 10 7 7 6 5 3 3 5 6 7 6 6 7 8 7
10 9 8 8 9 9 9 10 10 10 9 9 9 9 9 10 9 8 8 8 9 8 8 9 8 8 8 8 7 6 6 8 13 14 15 16 16 13 6 7 6 7 8 8 8 9 9 8 8 8 8 7 7 8 7 7 7 7 8 7 7 11 16 19 20 21 14 10 9 12 9 7 9 4 5 5 6 6 6 6 5 6 6 8 9
9 9 9 8 9 9 11 11 11 10 9 9 10 10 11 9 10 9 9 10 11 10 10 9 8 7 6 6 7 7 7 11 14 15 16 17 17 13 6 6 6 6 7 7 9 9 9 8 8 9 8 7 8 9 8 8 6 7 7 8 9 7 7 7 8 7 8 7 9 11 7 7 8 6 6 7 8 8 5 4 4 4 6 6 5
9 8 9 9 10 10 11 10 9 9 9 8 9 9 9 10 10 7 7 6 5 5 5 6 8 8 7 7 7 9 8 13 15 16 17 17 18 10 6 7 7 7 8 9 10 9 7 8 9 10 9 7 9 14 12 6 6 7 9 9 8 8 8 9 11 10 8 7 8 8 6 7 9 8 8 8 7 2 4 4 3 1 4 7 10
9 8 9 9 10 10 10 10 9 8 9 9 9 8 8 8 7 6 7 7 7 7 7 7 6 7 8 8 9 9 7 11 16 17 17 19 13 8 7 7 7 8 10 10 9 8 8 9 9 9 8 8 9 13 14 11 7 8 9 9 9 7 10 8 12 17 19 20 22 21 20 19 19 19 18 21 10 6 5 2 4 2 3 9 10
7 8 8 8 9 9 9 9 10 9 9 10 9 7 5 4 6 6 7 6 6 5 5 5 4 6 8 9 10 10 8 8 14 16 17 18 13 9 7 7 8 8 9 9 7 7 9 12 10 9 9 9 9 13 13 10 7 9 8 10 10 10 11 6 6 9 17 21 22 22 21 20 20 21 21 13 10 6 7 6 3 3 5 4 8
8 8 7 6 6 7 8 9 9 9 9 9 9 9 9 8 6 6 6 6 6 5 5 5 5 5 7 8 7 8 6 6 13 15 16 16 12 7 7 6 8 9 8 9 7 7 8 9 14 12 10 11 12 12 14 11 8 8 9 7 11 12 13 5 8 7 7 7 10 11 12 15 10 5 6 10 9 5 4 4 4 2 6 6 6
5 5 6 7 7 7 7 9 8 9 8 6 6 7 6 7 7 7 5 5 5 5 5 6 8 7 5 5 6 7 7 6 6 13 14 14 15 9 6 6 10 11 9 9 9 8 7 7 9 14 18 17 16 16 15 16 10 9 7 9 10 16 7 5 8 7 8 9 9 9 9 7 5 5 4 4 3 3 3 3 4 5 7 7 6
7 7 7 7 7 7 6 8 9 7 8 8 7 7 6 7 7 6 6 5 5 5 6 6 6 6 5 6 6 6 6 6 6 11 13 14 16 14 7 9 9 8 9 9 9 9 8 7 6 10 15 16 17 19 20 19 18 11 10 11 13 12 3 5 7 12 9 8 9 8 8 6 5 4 5 4 3 2 3 4 5 6 7 7 7
8 8 9 8 8 8 8 6 7 8 7 8 8 6 5 6 7 7 6 6 7 7 6 6 6 5 4 5 5 6 5 7 5 9 14 15 15 17 10 9 8 7 9 10 9 8 9 6 6 7 13 17 17 18 20 20 22 14 14 20 22 21 14 9 8 7 8 8 8 8 8 7 7 6 5 5 4 4 4 5 5 6 6 6 7
8 9 8 8 8 8 8 9 8 7 7 8 8 8 6 6 6 6 7 6 7 7 7 6 5 5 5 5 4 5 4 4 7 6 9 13 14 15 16 11 10 7 8 11 11 9 7 6 6 11 15 17 18 19 20 23 19 15 23 24 25 25 19 10 9 9 9 9 9 10 9 7 7 8 7 6 5 4 4 5 6 5 4 5 6
8 8 8 8 8 8 8 8 7 7 8 7 7 7 7 7 6 6 6 6 6 6 5 5 5 5 6 6 4 3 3 4 6 8 6 11 12 14 15 16 16 7 7 9 9 8 8 7 6 12 16 18 19 20 21 21 15 20 23 24 24 21 13 10 8 8 7 7 8 8 7 7 7 8 7 5 4 4 4 4 4 5 5 5 6
8 8 8 8 8 7 6 6 6 6 6 8 8 7 6 7 6 4 6 6 6 6 6 5 6 6 4 5 3 3 4 4 4 6 11 12 14 15 16 17 17 18 12 10 7 7 9 12 14 16 16 18 21 22 20 21 25 23 24 23 20 10 9 9 7 5 6 8 8 8 8 8 8 6 2 3 3 3 3 3 3 3 3 3 4
8 8 7 6 6 7 7 5 5 5 6 5 6 6 8 7 6 6 5 5 5 5 4 4 4 4 5 3 3 3 2 3 4 3 5 7 8 12 15 16 16 17 16 13 16 18 19 19 19 19 18 16 12 9 9 9 16 21 22 21 11 9 7 6 5 6 8 8 8 9 9 5 4 3 3 4 4 5 5 4 4 4 3 4 4
6 6 6 6 5 6 7 6 6 5 5 4 4 5 5 5 5 5 5 5 4 4 4 5 4 4 6 5 3 3 3 3 3 3 3 4 4 4 5 6 8 10 8 7 9 8 9 8 8 12 12 17 18 17 16 14 12 11 9 7 7 7 7 7 8 8 8 7 7 7 4 3 2 3 4 4 5 4 4 4 3 3 2 3 4
7 7 7 6 6 6 6 7 7 5 4 4 5 5 4 5 5 6 6 6 6 5 6 5 6 6 5 4 3 2 4 3 4 5 5 5 5 4 3 3 4 4 6 7 6 6 6 7 9 6 6 7 7 6 6 5 6 6 6 6 7 7 9 11 7 5 5 5 5 1 2 3 4 5 4 4 5 5 3 3 4 3 3 2 2
7 7 6 6 6 5 6 6 6 6 6 6 5 3 5 5 6 3 1 3 6 6 6 5 5 3 5 4 5 5 3 4 6 6 7 8 7 5 4 6 5 4 8 11 7 4 3 4 4 4 4 5 6 6 6 6 6 5 4 4 4 4 3 3 7 8 6 5 6 6 6 4 5 4 5 5 6 5 3 4 3 4 3 3 5
8 6 6 6 6 6 6 6 6 6 7 7 7 6 6 7 4 5 1 1 3 3 5 4 4 4 4 3 3 5 5 5 5 5 6 8 10 11 12 11 10 8 9 13 9 5 5 4 4 4 5 5 6 6 6 5 6 5 5 6 5 5 5 5 6 7 5 6 6 5 6 5 5 5 6 7 6 4 4 5 3 4 4 5 5
7 6 6 6 6 6 6 6 5 6 6 7 7 7 7 7 9 8 7 6 5 4 5 5 7 7 6 2 3 6 6 4 3 4 5 5 7 7 8 8 10 13 15 10 7 6 5 6 5 4 5 5 6 7 6 6 6 6 6 5 5 6 6 6 7 6 7 7 6 6 6 6 7 6 7 6 6 4 3 3 3 4 5 5 5
8 6 6 5 6 5 6 6 6 6 6 5 7 7 7 7 6 8 9 7 7 7 6 5 5 5 6 5 3 1 3 3 3 4 4 4 5 5 6 8 9 10 11 11 6 5 4 5 5 5 5 5 5 5 5 6 6 6 6 7 6 5 6 7 8 6 6 6 6 6 6 6 6 6 6 5 5 4 4 4 4 5 5 4 6
9 7 6 6 6 6 6 6 6 6 6 6 5 6 7 7 8 5 5 8 11 11 10 10 9 9 10 11 9 7 7 8 9 9 9 9 9 8 7 9 11 14 11 6 5 4 5 4 4 5 5 5 6 6 6 6 6 6 6 7 7 6 5 6 6 6 6 7 6 6 6 6 6 5 5 5 5 5 5 5 5 5 4 5 5
7 7 7 7 7 6 6 6 6 5 5 5 6 6 5 6 7 8 8 7 6 8 11 13 11 11 12 12 10 10 10 10 10 10 10 10 9 8 8 6 8 11 10 4 4 3 3 3 3 4 3 4 4 4 5 5 5 6 6 7 7 8 8 6 4 5 5 5 5 5 5 5 5 6 6 5 5 5 5 6 5 5 5 6 6
7 7 9 7 6 7 6 6 6 6 6 6 6 6 5 4 6 8 8 7 7 6 1 5 10 12 8 9 10 11 10 9 10 11 12 11 10 8 8 6 5 5 6 5 4 3 4 4 4 4 4 4 5 5 5 6 6 6 6 7 7 7 8 7 6 5 5 5 5 5 5 5 5 5 6 6 5 6 6 5 5 5 6 5 4
7 7 6 7 7 6 6 6 5 6 6 6 5 5 6 6 6 5 4 4 6 6 4 3 1 5 11 11 12 10 9 9 10 11 12 13 12 9 4 4 4 3 3 4 4 3 3 3 3 3 3 3 4 4 5 5 6 6 6 7 7 8 8 8 8 7 6 5 5 5 4 4 5 5 4 4 6 6 5 5 5 4 5 4 4
7 7 6 5 5 6 6 5 5 5 6 6 6 6 6 6 7 6 7 6 6 4 5 1 1 2 5 6 7 9 9 9 10 12 12 12 13 9 6 4 3 2 3 2 3 3 3 3 2 2 3 3 3 3 4 4 5 5 6 7 7 7 6 7 8 7 6 5 5 4 5 5 5 5 5 5 4 4 4 4 4 5 5 6 5
6 7 6 6 6 6 6 6 6 7 6 5 5 6 6 6 5 6 7 6 5 6 5 3 4 3 2 2 5 2 4 7 7 9 10 10 8 5 5 3 2 2 1 1 1 1 1 2 2 3 3 4 4 4 5 4 5 5 6 6 6 6 10 9 10 9 8 6 5 4 4 4 3 3 4 5 5 5 5 5 4 5 4 5 3
6 8 10 9 7 6 6 7 6 6 6 6 5 7 7 7 6 6 6 6 6 5 6 4 4 4 1 0 2 3 5 5 6 4 3 3 3 3 3 2 2 1 1 0 0 0 1 1 3 2 3 3 4 4 5 5 5 5 6 6 6 6 6 5 6 6 6 6 5 5 4 4 3 2 2 3 4 5 5 4 4 4 5 5 4
7 6 6 8 6 6 6 7 6 6 7 7 6 6 6 6 6 6 5 6 5 4 4 5 3 1 0 0 1 2 5 2 1 0 0 1 1 1 1 1 1 0 0 1 1 1 1 3 3 3 4 4 4 5 5 4 4 5 5 5 5 6 6 5 5 5 5 5 5 5 4 4 3 2 3 4 5 4 4 4 4 4 4 4 4
6 6 5 6 6 7 6 6 6 6 5 6 6 6 6 6 5 6 5 5 5 4 3 4 2 0 2 4 3 8 5 4 2 1 1 0 0 0 0 0 0 1 1 1 1 2 2 3 3 3 4 4 4 4 5 4 4 4 5 5 5 5 6 5 5 5 5 5 5 4 4 4 3 3 4 4 4 4 3 3 3 3 4 4 4
6 6 6 6 6 6 6 7 6 6 5 6 5 6 6 6 4 5 6 4 5 5 4 1 0 1 5 2 5 7 6 2 2 2 0 0 1 1 1 1 1 1 2 3 3 3 3 3 4 3 4 5 4 4 4 5 4 4 4 5 5 6 6 6 6 5 5 5 4 4 4 3 3 4 4 4 3 3 3 3 3 4 3 4 3
6 6 5 6 5 5 6 6 5 6 5 5 4 4 5 5 4 5 4 5 3 4 3 2 1 0 2 5 4 5 4 2 1 0 0 1 1 1 2 3 3 2 3 4 3 3 4 4 5 5 4 5 5 4 5 6 4 4 4 4 5 6 6 6 6 5 4 5 5 4 4 4 4 2 2 2 2 2 4 4 4 4 4 4 4
6 6 7 6 6 6 6 6 6 5 5 5 4 6 5 4 4 4 5 4 3 2 3 2 1 0 0 3 3 3 1 0 0 1 1 2 1 2 4 4 4 4 4 4 4 3 3 4 5 5 5 4 5 4 5 5 4 4 4 5 5 5 5 4 5 5 5 5 6 5 5 3 2 2 3 4 3 4 4 3 4 4 4 4 4
6 6 6 6 6 6 5 4 5 6 6 6 4 4 5 4 4 2 3 3 3 2 1 1 1 0 1 0 0 0 1 1 2 2 2 3 3 5 5 4 4 5 4 5 4 3 3 5 6 5 5 5 5 5 6 5 4 4 4 5 5 6 6 5 5 4 5 4 4 5 4 3 4 3 3 3 3 3 4 4 4 4 4 4 4
6 6 7 6 6 7 6 5 6 5 5 5 5 4 2 2 2 2 3 2 3 2 1 1 1 1 2 1 1 2 1 1 2 2 5 3 4 5 4 4 5 5 5 5 5 3 5 5 5 5 6 6 5 5 5 5 5 5 4 4 5 6 6 5 5 4 5 4 5 4 5 3 4 4 4 4 3 4 4 4 3 4 4 4 4
5 6 6 6 6 6 6 6 5 4 4 3 3 3 2 2 2 2 3 3 1 3 1 1 1 2 1 2 2 3 3 2 4 3 4 5 4 6 6 4 5 5 5 5 4 5 5 5 5 5 5 5 5 6 6 6 6 6 4 4 6 5 5 5 5 4 5 4 4 3 4 4 4 3 5 4 4 4 4 4 4 5 5 4 4
6 6 6 6 5 6 4 4 4 4 3 3 2 3 3 3 2 2 2 2 1 2 1 1 2 2 3 3 3 3 3 4 4 5 5 6 5 5 5 4 5 5 4 5 5 5 5 5 5 5 5 5 5 5 5 6 5 6 5 4 5 5 6 6 6 5 5 5 5 4 4 5 4 4 4 4 4 4 4 5 4 3 4 4 5
6 6 6 4 4 4 6 4 5 4 4 3 2 2 3 1 2 1 1 1 2 2 2 3 4 2 3 4 4 4 4 6 6 4 6 6 5 5 6 4 5 5 5 5 6 5 6 5 5 5 6 5 5 6 6 5 6 6 5 5 5 8 10 10 7 6 6 5 5 5 4 4 4 4 4 4 4 4 4 4 4 4 4 4 4
5 5 5 4 5 4 3 3 3 4 4 3 4 2 1 2 1 2 2 2 2 3 3 3 4 5 4 4 5 6 4 5 6 6 6 5 5 5 5 5 5 5 5 5 5 5 5 4 5 5 5 5 5 5 5 6 6 6 5 6 9 11 11 12 12 10 7 4 5 5 5 4 4 4 4 4 4 4 5 5 4 5 4 4 4
5 4 4 4 4 3 4 4 4 3 3 3 3 3 3 3 5 3 2 3 5 5 4 4 5 4 4 5 6 6 6 5 6 5 6 6 5 5 5 6 6 5 5 5 6 6 5 4 5 5 5 5 5 5 5 6 6 6 8 11 13 12 12 12 8 9 11 8 4 5 5 5 4 5 4 4 4 4 7 5 5 5 5 4 4
Wind_Direction
177 181 168 179 173 181 180 178 182 176 167 173 174 177 176 173 177 169 145 167 163 168 172 172 170 166 160 164 160 160 153 148 143 137 134 137 139 141 146 143 133 133 132 128 130 141 145 142 148 150 148 168 180 171 156 146 128 131 136 140 164 174 171 190 212 256 284 220 224 251 291 0 331 74 349 325 319 308 296 286 285 285 287 285 283
182 172 177 178 182 180 180 178 175 169 168 170 177 174 173 177 175 160 172 170 169 170 170 167 166 165 163 164 163 154 149 145 145 142 143 141 142 149 150 144 137 139 141 145 149 151 145 145 154 156 176 182 184 181 167 152 153 146 164 166 185 188 199 176 224 226 263 285 296 280 280 111 271 289 339 318 306 300 291 286 280 272 279 284 284
177 174 178 181 183 178 173 175 167 174 173 173 177 174 175 177 174 172 170 165 166 171 169 165 166 162 159 157 155 155 154 149 151 149 152 153 153 159 159 152 150 153 158 161 156 147 145 155 166 163 164 184 201 194 169 169 168 169 182 184 188 198 199 200 178 231 257 269 226 237 236 265 237 284 303 277 281 282 285 282 282 278 269 275 274
176 173 179 182 175 171 177 171 171 175 179 178 177 175 171 171 170 173 164 153 162 164 163 164 159 164 160 160 160 152 150 152 155 163 161 161 160 161 160 157 156 164 164 159 158 161 163 160 177 170 170 187 202 195 191 175 176 184 187 194 192 200 202 198 212 207 232 248 266 187 244 278 283 282 273 275 269 275 268 278 268 267 268 266 266
178 178 177 177 176 179 179 174 177 180 181 177 179 169 168 163 168 171 154 157 159 152 159 164 166 167 168 164 159 161 164 161 161 162 162 161 164 161 162 158 162 171 171 165 165 166 167 180 176 171 172 186 203 203 195 194 196 189 198 197 196 205 201 201 212 214 221 248 272 253 218 254 254 255 266 281 283 272 264 269 272 265 271 256 254
181 177 177 179 181 184 182 179 184 182 179 179 177 171 166 165 166 164 161 158 156 164 163 167 174 174 168 167 164 161 158 159 161 162 160 157 157 162 159 161 167 172 169 169 171 175 175 181 180 177 179 188 202 200 195 201 196 205 206 206 199 193 205 215 206 216 231 249 253 295 251 249 292 267 232 244 303 311 304 265 249 260 261 289 256
179 182 182 183 183 189 186 185 181 181 183 180 174 170 169 165 164 167 165 161 162 165 167 169 176 174 168 162 164 160 157 160 163 161 160 162 163 162 164 165 169 172 175 175 178 179 182 184 184 186 190 197 195 196 195 200 200 214 209 205 198 189 209 213 208 223 232 257 272 251 276 264 249 277 273 278 268 267 293 320 314 198 238 285 312
181 185 184 188 191 190 186 181 182 183 182 177 177 173 168 166 169 163 159 164 168 173 173 175 169 164 166 168 163 156 160 160 160 156 162 170 171 170 172 174 173 178 174 182 184 189 193 196 195 196 198 200 197 199 186 198 197 216 215 196 197 196 210 208 211 222 241 251 256 269 258 272 267 261 262 267 288 271 227 298 306 317 319 305 287
186 188 189 194 194 184 176 179 183 180 179 177 175 172 166 161 159 159 162 165 170 172 169 165 160 164 164 163 158 160 168 175 171 172 170 178 180 177 177 180 179 180 181 185 192 199 205 206 207 205 206 206 206 199 201 194 181 208 218 190 201 201 206 204 209 214 241 244 262 255 265 265 256 261 274 239 243 278 283 275 278 282 294 307 312
188 191 196 198 188 176 175 176 179 176 174 178 173 161 160 159 160 163 171 173 166 160 159 160 165 172 166 167 167 165 180 181 182 181 183 179 179 178 175 182 185 185 184 188 202 212 215 212 217 211 208 209 211 213 213 211 207 203 199 190 197 198 202 201 210 217 221 237 248 250 263 265 253 229 249 239 246 276 286 276 284 295 300 298 297
193 192 196 188 179 168 172 179 171 174 174 163 159 162 163 163 164 167 169 167 163 159 156 164 174 171 172 172 172 182 184 181 179 189 190 187 177 183 185 189 188 190 192 194 206 212 218 218 220 220 216 216 217 221 224 224 226 224 218 206 199 190 191 201 220 204 210 233 243 229 244 267 262 201 231 258 248 249 261 270 277 295 301 314 313
191 194 189 178 174 173 174 168 168 170 165 168 164 163 159 162 168 169 166 162 160 155 166 176 168 168 169 173 185 185 184 176 188 195 196 193 188 191 193 191 190 197 198 203 213 212 216 217 222 217 221 219 213 223 229 231 231 232 230 224 217 214 202 189 201 209 212 223 240 238 228 245 263 199 239 251 262 257 255 269 278 284 290 292 288
188 188 182 174 171 167 166 166 168 167 171 167 162 160 164 166 167 167 171 168 155 165 175 168 175 170 172 181 186 183 187 185 193 199 202 204 201 192 199 197 194 203 203 207 212 215 211 215 224 226 227 223 218 217 221 237 242 241 238 237 234 229 227 224 218 209 195 215 230 245 223 232 249 237 197 216 240 261 265 268 265 270 278 281 280
182 182 171 171 165 164 166 167 169 169 166 165 162 164 165 172 171 168 158 157 168 171 174 177 171 176 178 180 184 182 190 190 199 204 207 209 209 199 200 201 206 207 207 210 215 216 211 207 217 230 226 216 217 215 219 225 229 246 251 249 245 245 242 240 240 236 214 210 215 237 240 188 231 212 210 227 249 253 263 249 251 264 266 272 294
178 175 172 167 162 165 168 172 169 163 166 163 163 167 170 168 168 169 170 174 174 177 176 175 178 171 171 176 181 192 200 197 203 208 212 213 214 210 194 200 210 215 216 217 223 223 215 212 219 231 227 212 212 209 214 219 218 230 237 245 247 242 244 248 242 243 234 215 220 236 237 213 221 218 218 231 237 250 239 219 231 266 292 304 291
175 168 169 165 167 170 167 165 164 165 161 159 164 170 173 172 169 161 159 160 151 147 159 164 173 174 177 181 189 206 208 199 205 211 214 215 215 214 196 198 211 218 222 224 226 226 216 216 223 233 234 225 218 218 218 201 213 223 233 244 248 248 247 238 241 242 235 236 236 235 218 212 218 209 220 232 236 182 102 73 67 40 320 299 293
175 171 167 166 167 166 164 161 159 148 155 161 169 169 169 167 163 154 159 164 168 175 173 179 175 174 186 192 199 212 209 202 206 211 214 216 212 215 201 201 213 218 228 228 230 225 220 219 225 233 236 236 224 222 223 207 208 221 231 241 245 250 253 247 246 246 246 246 247 248 247 242 244 247 243 243 230 155 128 166 243 183 306 300 294
169 166 166 165 164 162 160 152 151 159 161 168 169 162 145 135 146 149 156 155 164 173 177 176 174 185 195 203 205 210 214 200 208 214 216 216 213 214 208 205 220 224 236 237 228 230 227 223 223 231 235 242 229 227 225 219 218 222 223 238 249 251 255 234 228 240 246 247 247 247 247 248 249 252 254 235 207 172 152 232 235 135 266 229 267
169 172 164 154 148 146 145 147 152 157 164 168 163 160 164 162 152 151 159 164 173 162 165 176 193 200 207 212 210 214 223 204 210 218 219 219 217 217 209 210 225 234 235 245 234 225 237 230 228 229 233 242 240 233 229 223 227 231 225 227 245 250 252 197 219 225 234 239 248 245 248 249 252 216 181 207 222 188 190 197 151 152 248 246 248
141 126 130 141 143 146 150 150 155 159 158 146 148 154 143 140 154 159 159 162 161 164 176 189 201 212 199 206 212 213 217 218 210 221 222 224 221 218 213 207 231 237 236 241 249 240 231 236 237 238 240 243 241 239 236 233 228 235 226 227 241 252 243 198 217 210 224 221 232 231 235 230 197 216 199 199 208 180 172 135 157 176 214 231 226
133 133 131 134 138 142 146 152 153 156 154 155 152 146 153 154 147 154 161 161 165 175 188 196 207 215 199 206 207 217 208 216 213 217 226 226 227 224 222 226 232 241 244 246 243 249 247 233 231 231 240 247 249 249 248 245 243 237 230 230 232 246 224 215 225 218 220 224 227 226 228 218 203 204 224 214 203 193 181 190 180 189 200 213 223
133 135 140 144 148 149 151 150 149 149 144 139 145 149 153 153 161 166 166 169 181 190 191 199 206 216 206 204 208 215 209 207 211 220 224 229 230 230 231 237 227 231 249 252 250 248 248 238 231 218 229 239 244 247 250 251 251 249 241 242 246 245 244 234 222 217 227 225 226 225 221 212 209 212 217 219 216 213 193 194 200 203 214 207 205
138 139 141 145 151 152 151 152 148 148 151 154 156 163 161 161 161 163 166 169 181 189 195 195 200 215 218 220 214 216 215 215 219 218 232 238 240 241 244 248 238 213 228 249 252 255 251 233 222 221 231 234 238 241 243 246 250 250 253 257 259 257 253 238 225 222 223 223 220 224 220 209 212 223 214 222 221 199 202 198 201 205 222 228 236
136 139 145 149 149 153 157 156 151 151 154 155 158 156 162 165 161 168 166 169 175 187 197 189 200 217 225 233 217 208 194 188 227 230 227 238 245 248 251 253 255 240 219 242 254 255 253 244 231 229 236 238 240 242 248 252 249 252 259 263 266 267 265 257 237 226 217 222 225 229 226 214 217 223 215 212 206 202 191 194 189 203 218 232 237
140 145 148 151 153 149 145 147 150 154 155 156 156 153 150 150 152 158 159 171 177 190 200 188 204 219 227 238 227 193 186 188 209 227 231 230 235 238 243 246 248 251 254 255 247 239 248 255 258 256 250 250 253 256 256 260 264 266 267 267 267 264 263 261 245 201 220 227 225 228 231 221 216 222 184 163 168 178 186 211 189 197 225 259 258
143 146 140 137 137 135 137 138 141 146 150 157 157 157 158 165 163 160 165 177 183 188 193 176 206 213 231 236 226 208 174 177 209 233 243 243 244 246 247 249 252 254 257 263 267 273 273 275 278 279 278 274 266 253 254 252 257 261 263 265 260 258 264 263 232 222 232 234 228 231 233 209 202 197 161 162 178 194 182 189 174 235 198 241 271
114 108 114 111 117 133 137 144 137 130 136 122 118 129 134 146 143 149 162 168 167 179 177 181 196 204 225 226 211 191 195 196 211 227 246 240 249 261 270 281 285 281 281 293 300 299 305 308 303 296 294 289 284 274 266 258 256 257 253 248 247 245 246 237 237 234 241 243 240 238 221 154 129 138 190 186 201 199 193 177 190 226 196 236 234
126 127 125 129 129 132 127 123 124 113 99 106 112 103 99 130 146 159 173 173 174 189 185 198 202 209 221 208 195 205 227 221 220 219 224 214 232 236 248 267 265 266 274 276 275 283 293 301 307 316 307 300 289 289 285 278 260 254 249 242 240 241 243 244 243 240 243 241 240 140 118 159 192 203 190 198 207 192 193 180 189 216 206 213 252
108 107 109 107 99 90 104 106 115 115 104 79 53 87 132 131 132 94 51 164 173 174 189 202 206 208 187 185 190 223 219 223 238 210 206 200 196 195 220 230 232 233 237 248 258 265 282 301 309 313 310 296 301 291 285 277 270 260 264 273 275 277 272 237 240 239 235 215 229 215 219 181 215 184 189 192 215 199 187 186 207 196 230 206 239
100 96 98 103 106 103 99 98 106 115 118 115 103 65 74 104 120 136 167 128 169 178 143 176 194 167 167 221 191 192 205 221 236 235 228 226 224 213 211 212 213 214 229 245 245 238 251 259 266 274 281 281 282 285 280 272 273 265 250 243 238 236 231 237 243 250 233 227 232 224 220 204 214 202 205 212 224 196 197 191 207 191 196 214 237
102 102 102 106 116 117 115 106 103 109 117 120 112 108 81 56 74 87 109 117 117 124 138 136 147 152 150 176 247 216 220 248 262 263 272 278 279 288 287 274 259 247 242 240 241 240 233 236 255 247 256 258 258 262 266 271 273 278 270 249 238 237 234 235 238 235 237 233 230 225 220 208 219 206 211 216 214 203 181 204 179 191 207 217 229
117 117 110 117 105 104 106 112 112 107 96 103 121 127 119 101 66 73 86 96 107 110 110 110 112 136 169 178 149 348 301 280 285 297 311 317 322 312 295 278 280 284 275 271 261 252 231 243 254 258 262 274 285 289 289 284 284 284 287 283 268 235 234 242 241 232 240 238 233 231 223 223 223 220 215 212 193 194 188 195 192 203 218 215 228
119 119 120 112 108 108 111 112 115 120 131 127 131 136 136 137 120 88 53 89 93 89 89 89 85 85 78 76 88 97 89 74 63 55 44 40 36 35 39 33 29 26 29 23 6 357 7 360 355 7 6 1 351 358 353 348 342 333 326 310 301 299 267 253 259 245 231 230 226 231 221 220 222 221 216 199 193 205 196 205 204 201 206 218 238
114 129 134 133 122 121 119 126 122 121 124 126 134 133 143 144 142 137 121 108 74 56 55 53 55 63 61 60 54 53 53 52 48 45 43 38 31 20 27 11 359 39 55 48 28 26 19 19 18 16 2 354 347 357 353 351 351 339 337 337 331 329 323 338 318 275 265 249 242 238 221 220 208 206 211 201 207 199 198 211 199 207 219 220 234
102 97 105 116 119 125 127 123 127 127 125 125 127 123 125 122 135 141 151 149 143 118 64 7 23 55 59 45 44 48 46 45 45 41 36 31 21 7 34 30 17 356 22 38 44 30 37 8 19 4 3 359 353 357 344 342 336 332 330 327 325 323 323 320 310 299 280 270 258 250 232 222 215 210 206 201 191 199 211 209 215 215 224 232 236
109 112 109 108 110 114 115 116 118 120 120 121 118 120 120 120 114 117 107 103 117 117 90 33 356 8 51 43 41 44 52 53 57 48 44 41 31 33 58 39 54 32 40 10 35 26 40 30 31 360 359 6 357 351 339 336 331 330 325 322 322 324 319 316 314 305 289 272 260 258 247 231 219 215 208 205 202 205 203 208 214 219 220 230 237
114 112 108 107 111 109 108 104 106 111 112 113 113 104 94 91 93 93 94 102 100 93 113 68 40 359 46 29 22 22 49 62 59 56 49 50 53 60 86 93 102 73 61 40 28 32 29 3 18 10 359 3 341 331 330 323 325 326 323 321 314 317 313 305 303 302 299 280 270 253 245 238 221 210 191 209 214 209 215 215 215 217 220 233 236
111 120 123 128 119 116 113 111 110 104 102 103 99 105 104 102 104 113 116 118 122 116 99 82 88 97 76 326 352 7 23 29 39 41 35 36 37 40 50 66 80 101 86 15 21 87 13 321 340 358 333 336 331 328 329 322 325 324 319 317 315 305 315 318 318 318 313 303 288 273 265 264 239 216 199 204 208 206 216 213 209 220 237 240 242
104 114 120 119 114 116 119 118 114 110 106 104 117 116 119 118 115 109 109 114 111 110 117 111 107 103 137 296 332 4 53 33 47 30 23 27 47 58 75 64 84 55 80 92 319 353 297 289 306 329 320 325 318 319 319 316 317 316 315 314 311 309 313 315 318 320 321 315 311 312 302 287 286 258 227 215 226 215 218 209 212 211 223 234 233
113 112 107 107 103 107 108 112 114 112 120 120 114 115 116 122 132 131 135 124 122 128 131 122 115 148 256 250 199 106 94 95 103 145 325 6 34 16 70 76 61 157 267 284 277 242 285 287 285 294 296 299 299 302 301 306 302 300 304 301 306 307 304 308 312 313 309 316 312 310 299 289 275 236 231 231 234 223 219 222 219 220 230 242 251
108 103 102 101 109 107 98 96 101 113 115 110 120 116 124 125 125 124 121 121 126 127 119 130 149 269 267 275 115 116 125 147 156 157 162 178 221 244 267 220 217 272 285 287 285 291 277 277 287 279 275 276 277 281 286 289 293 299 299 299 302 297 299 293 290 294 293 296 293 293 285 273 244 210 238 243 246 239 238 236 233 229 239 244 252
107 106 99 101 102 104 107 101 104 99 102 109 108 120 123 124 124 125 125 129 132 130 126 132 253 274 302 8 85 97 110 146 139 168 179 230 235 247 234 236 222 221 242 253 253 271 287 279 270 264 267 271 271 275 278 282 283 289 294 296 296 298 299 297 293 290 297 291 287 280 267 254 240 236 251 256 236 250 248 236 240 244 246 251 254
91 94 98 96 93 99 110 115 111 107 105 104 105 105 109 117 121 119 119 124 129 133 138 149 228 347 340 29 52 72 86 127 141 157 213 236 266 273 281 277 272 259 245 253 252 238 249 263 271 263 254 253 250 251 259 263 272 286 292 292 291 293 293 297 300 300 297 296 285 280 268 260 268 262 245 274 272 237 233 241 243 241 246 252 252
96 95 88 86 87 85 86 100 97 96 103 102 101 97 100 98 100 105 118 120 128 126 147 162 180 100 319 2 34 60 98 124 187 230 245 254 271 275 271 270 279 286 276 266 261 246 236 251 263 267 259 254 253 248 246 246 248 257 271 282 288 285 284 289 297 298 299 301 295 284 279 270 252 242 246 238 232 238 245 237 245 248 252 252 252
98 98 100 93 87 92 85 78 95 98 93 88 84 82 86 111 112 121 121 135 133 143 157 176 171 191 248 327 52 66 262 209 235 235 257 253 262 266 263 267 256 260 265 268 259 248 246 247 254 262 273 266 257 253 256 256 245 240 244 253 266 275 273 272 270 279 291 287 285 286 276 259 255 247 247 248 235 238 248 237 236 246 248 250 245
99 103 102 107 101 96 93 85 86 89 100 107 116 110 95 89 120 131 140 150 159 168 185 199 198 200 215 249 249 233 246 238 254 246 256 262 254 258 254 251 253 248 250 254 262 250 246 242 249 256 263 269 273 268 264 263 260 254 246 238 241 255 262 265 270 280 279 269 264 262 263 252 244 238 239 233 232 235 243 251 239 240 247 256 255
93 98 101 103 108 106 99 99 97 97 101 110 123 135 143 153 153 143 148 165 174 185 186 202 192 223 227 236 242 258 250 248 254 254 248 252 254 255 258 254 252 254 253 253 249 250 250 251 250 249 259 266 270 273 274 268 266 263 257 252 253 258 267 262 261 254 258 253 247 244 249 253 253 247 250 242 230 233 235 244 234 243 242 245 246
99 96 98 105 106 108 108 109 114 114 122 133 146 143 152 153 157 158 182 198 197 201 217 227 230 237 238 254 243 242 246 246 250 250 252 251 252 251 252 252 252 252 256 258 255 248 247 246 248 250 256 265 271 273 274 273 271 267 264 261 259 259 260 264 263 260 252 251 245 239 240 248 253 248 243 239 241 239 241 247 246 246 241 244 247
102 108 109 111 116 127 135 138 144 156 166 161 147 149 157 162 187 198 204 203 209 217 207 229 249 240 237 249 246 247 245 247 248 253 250 250 250 251 247 247 251 256 253 258 255 252 248 248 247 247 249 257 260 264 269 273 268 267 266 265 264 267 269 273 268 254 241 238 235 236 234 235 244 246 239 238 240 229 238 248 246 248 253 251 252
100 107 116 116 119 125 119 130 145 154 151 151 154 172 189 182 216 220 222 227 237 244 240 232 235 239 231 249 247 246 241 244 248 248 252 252 249 249 251 251 253 252 250 254 255 251 249 247 248 251 252 254 255 259 261 263 266 264 266 265 273 277 279 279 278 271 259 236 227 218 216 226 230 239 238 230 231 231 234 241 239 240 245 245 248
105 106 106 116 122 130 136 138 147 158 157 162 176 182 200 215 222 227 225 232 238 248 243 236 237 243 239 235 238 245 246 248 247 249 250 253 253 247 247 248 251 253 254 253 257 252 248 248 248 250 252 254 257 258 262 261 264 264 264 267 273 276 276 273 267 259 258 247 222 213 211 218 222 230 234 229 216 222 234 238 239 238 241 243 248